This is the latest recevied weather packets stored in our database for station/object SR8WXL-13. If no packets are shown the sender has not sent any weather packets the latest 10 day(s).
| Time | Temp. | Humidity | Pressure | Rain* | Wind** | Luminosity | Snow |
|---|---|---|---|---|---|---|---|
| 1787594605 | 13.89° C | 83% | 1035.5 hPa | 0 mm | - | - | - |
| 1787593815 | 15° C | 78% | 1035.5 hPa | 0 mm | - | - | - |
| 1787593029 | 16.11° C | 75% | 1035.2 hPa | 0 mm | - | - | - |
| 1787592295 | 17.22° C | 71% | 1035.3 hPa | 0 mm | - | - | - |
| 1787591410 | 17.78° C | 66% | 1035.2 hPa | 0 mm | - | - | - |
| 1787590614 | 18.89° C | 63% | 1034.9 hPa | 0 mm | - | - | - |
| 1787589816 | 18.89° C | 62% | 1035.3 hPa | 0 mm | - | - | - |
| 1787589040 | 18.89° C | 62% | 1035.1 hPa | 0 mm | - | - | - |
| 1787588161 | 20° C | 59% | 1035.4 hPa | 0 mm | - | - | - |
| 1787587271 | 20° C | 59% | 1035.2 hPa | 0 mm | - | - | - |
| 1787586541 | 21.11° C | 59% | 1035.3 hPa | 0 mm | - | - | - |
| 1787585780 | 21.11° C | 58% | 1035.3 hPa | 0 mm | - | - | - |
| 1787584911 | 21.11° C | 57% | 1035.4 hPa | 0 mm | - | - | - |
| 1787584186 | 21.11° C | 56% | 1035.5 hPa | 0 mm | - | - | - |
| 1787583367 | 21.11° C | 55% | 1035.4 hPa | 0 mm | - | - | - |
| 1787582636 | 22.22° C | 55% | 1035.6 hPa | 0 mm | - | - | - |
| 1787581872 | 22.22° C | 54% | 1035.3 hPa | 0 mm | - | - | - |
| 1787581125 | 22.78° C | 55% | 1035.3 hPa | 0 mm | - | - | - |
| 1787580260 | 22.22° C | 55% | 1035.4 hPa | 0 mm | - | - | - |
| 1787579434 | 22.22° C | 54% | 1035.6 hPa | 0 mm | - | - | - |
| 1787578706 | 21.11° C | 54% | 1035.4 hPa | 0 mm | - | - | - |
| 1787577839 | 22.22° C | 52% | 1035.2 hPa | 0 mm | - | - | - |
| 1787576992 | 22.78° C | 51% | 1035.3 hPa | 0 mm | - | - | - |
| 1787576271 | 22.22° C | 54% | 1035.4 hPa | 0 mm | - | - | - |
| 1787575441 | 22.78° C | 51% | 1035.2 hPa | 0 mm | - | - | - |
* Rain latest hour (hover to see other rain measurements)
** Current wind speed in m/s (hover to see current wind gust speed)